Time,TemperatureF,DewpointF,PressureIn,WindDirection,WindDirectionDegrees,WindSpeedMPH,WindSpeedGustMPH,Humidity,HourlyPrecipIn,Conditions,Clouds,dailyrainin,SoftwareType,DateUTC
2013-03-19 00:00:00,74.0,74.0,30.01,East,100,3.0,5.0,98,-99.99,,,-99.99,,2013-03-19 04:00:00,
2013-03-19 00:22:00,74.0,74.0,30.01,East,100,3.0,5.0,98,-99.99,,,-99.99,,2013-03-19 04:22:00,
2013-03-19 00:32:00,74.0,74.0,30.01,East,100,3.0,5.0,98,-99.99,,,-99.99,,2013-03-19 04:32:00,
2013-03-19 00:42:00,74.0,74.0,30.01,East,100,3.0,5.0,98,-99.99,,,-99.99,,2013-03-19 04:42:00,
2013-03-19 00:52:00,74.0,74.0,30.01,East,100,3.0,5.0,98,-99.99,,,-99.99,,2013-03-19 04:52:00,
2013-03-19 01:00:00,74.0,73.0,29.99,ESE,120,8.0,8.0,98,-99.99,,,-99.99,,2013-03-19 05:00:00,
2013-03-19 01:22:00,74.0,73.0,29.99,ESE,120,8.0,8.0,98,-99.99,,,-99.99,,2013-03-19 05:22:00,
2013-03-19 01:32:00,74.0,73.0,29.99,ESE,120,8.0,8.0,98,-99.99,,,-99.99,,2013-03-19 05:32:00,
2013-03-19 01:42:00,74.0,73.0,29.99,ESE,120,8.0,8.0,98,-99.99,,,-99.99,,2013-03-19 05:42:00,
2013-03-19 01:51:00,74.0,73.0,29.99,ESE,120,8.0,8.0,98,-99.99,,,-99.99,,2013-03-19 05:51:00,
2013-03-19 02:00:00,74.0,74.0,29.98,ESE,110,7.0,7.0,99,-99.99,,,-99.99,,2013-03-19 06:00:00,
2013-03-19 02:21:00,74.0,74.0,29.98,ESE,110,7.0,7.0,99,-99.99,,,-99.99,,2013-03-19 06:21:00,
2013-03-19 02:31:00,74.0,74.0,29.98,ESE,110,7.0,7.0,99,-99.99,,,-99.99,,2013-03-19 06:31:00,
2013-03-19 02:42:00,74.0,74.0,29.98,ESE,110,7.0,7.0,99,-99.99,,,-99.99,,2013-03-19 06:42:00,
2013-03-19 02:52:00,74.0,74.0,29.98,ESE,110,7.0,7.0,99,-99.99,,,-99.99,,2013-03-19 06:52:00,
2013-03-19 03:00:00,74.0,74.0,29.95,ESE,120,10.0,11.0,99,-99.99,,,-99.99,,2013-03-19 07:00:00,
2013-03-19 03:21:00,74.0,74.0,29.95,ESE,120,10.0,11.0,99,-99.99,,,-99.99,,2013-03-19 07:21:00,
2013-03-19 03:32:00,74.0,74.0,29.95,ESE,120,10.0,11.0,99,-99.99,,,-99.99,,2013-03-19 07:32:00,
2013-03-19 03:41:00,74.0,74.0,29.95,ESE,120,10.0,11.0,99,-99.99,,,-99.99,,2013-03-19 07:41:00,
2013-03-19 04:00:00,74.0,74.0,29.93,East,100,9.0,9.0,99,-99.99,,,-99.99,,2013-03-19 08:00:00,
2013-03-19 04:21:00,74.0,74.0,29.93,East,100,9.0,9.0,99,-99.99,,,-99.99,,2013-03-19 08:21:00,
2013-03-19 04:31:00,74.0,74.0,29.93,East,100,9.0,9.0,99,-99.99,,,-99.99,,2013-03-19 08:31:00,
2013-03-19 04:41:00,74.0,74.0,29.93,East,100,9.0,9.0,99,-99.99,,,-99.99,,2013-03-19 08:41:00,
2013-03-19 04:51:00,74.0,74.0,29.93,East,100,9.0,9.0,99,-99.99,,,-99.99,,2013-03-19 08:51:00,
2013-03-19 05:00:00,69.0,69.0,29.96,North,350,23.0,25.0,98,-99.99,,,-99.99,,2013-03-19 09:00:00,
2013-03-19 05:21:00,69.0,69.0,29.96,North,350,23.0,25.0,98,-99.99,,,-99.99,,2013-03-19 09:21:00,
2013-03-19 05:42:00,69.0,69.0,29.96,North,350,23.0,25.0,98,-99.99,,,-99.99,,2013-03-19 09:42:00,
2013-03-19 05:52:00,69.0,69.0,29.96,North,350,23.0,25.0,98,-99.99,,,-99.99,,2013-03-19 09:52:00,
2013-03-19 06:00:00,68.0,68.0,29.97,North,10,20.0,21.0,99,-99.99,,,-99.99,,2013-03-19 10:00:00,
2013-03-19 06:22:00,68.0,68.0,29.97,North,10,20.0,21.0,99,-99.99,,,-99.99,,2013-03-19 10:22:00,
2013-03-19 06:32:00,68.0,68.0,29.97,North,10,20.0,21.0,99,-99.99,,,-99.99,,2013-03-19 10:32:00,
2013-03-19 06:41:00,68.0,68.0,29.97,North,10,20.0,21.0,99,-99.99,,,-99.99,,2013-03-19 10:41:00,
2013-03-19 06:52:00,68.0,68.0,29.97,North,10,20.0,21.0,99,-99.99,,,-99.99,,2013-03-19 10:52:00,
2013-03-19 07:00:00,69.0,69.0,29.97,ENE,60,11.0,13.0,99,-99.99,,,-99.99,,2013-03-19 11:00:00,
2013-03-19 07:21:00,69.0,69.0,29.97,ENE,60,11.0,13.0,99,-99.99,,,-99.99,,2013-03-19 11:21:00,
2013-03-19 07:31:00,69.0,69.0,29.97,ENE,60,11.0,13.0,99,-99.99,,,-99.99,,2013-03-19 11:31:00,
2013-03-19 07:41:00,69.0,69.0,29.97,ENE,60,11.0,13.0,99,-99.99,,,-99.99,,2013-03-19 11:41:00,
2013-03-19 07:52:00,69.0,69.0,29.97,ENE,60,11.0,13.0,99,-99.99,,,-99.99,,2013-03-19 11:52:00,
2013-03-19 08:00:00,70.0,70.0,30.00,NE,50,7.0,8.0,98,-99.99,,,-99.99,,2013-03-19 12:00:00,
2013-03-19 08:21:00,70.0,70.0,30.00,NE,50,7.0,8.0,98,-99.99,,,-99.99,,2013-03-19 12:21:00,
2013-03-19 08:32:00,70.0,70.0,30.00,NE,50,7.0,8.0,98,-99.99,,,-99.99,,2013-03-19 12:32:00,
2013-03-19 08:42:00,70.0,70.0,30.00,NE,50,7.0,8.0,98,-99.99,,,-99.99,,2013-03-19 12:42:00,
2013-03-19 08:51:00,70.0,70.0,30.00,NE,50,7.0,8.0,98,-99.99,,,-99.99,,2013-03-19 12:51:00,
2013-03-19 09:00:00,72.0,67.0,30.00,SSW,210,6.0,6.0,84,-99.99,,,-99.99,,2013-03-19 13:00:00,
2013-03-19 09:21:00,72.0,67.0,30.00,SSW,210,6.0,6.0,84,-99.99,,,-99.99,,2013-03-19 13:21:00,
2013-03-19 09:31:00,72.0,67.0,30.00,SSW,210,6.0,6.0,84,-99.99,,,-99.99,,2013-03-19 13:31:00,
2013-03-19 09:41:00,72.0,67.0,30.00,SSW,210,6.0,6.0,84,-99.99,,,-99.99,,2013-03-19 13:41:00,
2013-03-19 09:52:00,72.0,67.0,30.00,SSW,210,6.0,6.0,84,-99.99,,,-99.99,,2013-03-19 13:52:00,
2013-03-19 10:00:00,72.0,71.0,30.01,South,190,17.0,18.0,94,-99.99,,,-99.99,,2013-03-19 14:00:00,
2013-03-19 10:31:00,72.0,71.0,30.01,South,190,17.0,18.0,94,-99.99,,,-99.99,,2013-03-19 14:31:00,
2013-03-19 10:41:00,72.0,71.0,30.01,South,190,17.0,18.0,94,-99.99,,,-99.99,,2013-03-19 14:41:00,
2013-03-19 10:51:00,72.0,71.0,30.01,South,190,17.0,18.0,94,-99.99,,,-99.99,,2013-03-19 14:51:00,
2013-03-19 11:00:00,72.0,67.0,29.98,South,190,22.0,22.0,86,-99.99,,,-99.99,,2013-03-19 15:00:00,
2013-03-19 11:21:00,72.0,67.0,29.98,South,190,22.0,22.0,86,-99.99,,,-99.99,,2013-03-19 15:21:00,
2013-03-19 11:33:00,72.0,67.0,29.98,South,190,22.0,22.0,86,-99.99,,,-99.99,,2013-03-19 15:33:00,
2013-03-19 11:42:00,72.0,67.0,29.98,South,190,22.0,22.0,86,-99.99,,,-99.99,,2013-03-19 15:42:00,
2013-03-19 11:52:00,72.0,67.0,29.98,South,190,22.0,22.0,86,-99.99,,,-99.99,,2013-03-19 15:52:00,
2013-03-19 12:00:00,72.0,70.0,30.03,SW,220,14.0,15.0,94,-99.99,,,-99.99,,2013-03-19 16:00:00,
2013-03-19 12:23:00,72.0,70.0,30.03,SW,220,14.0,15.0,94,-99.99,,,-99.99,,2013-03-19 16:23:00,
2013-03-19 12:33:00,72.0,70.0,30.03,SW,220,14.0,15.0,94,-99.99,,,-99.99,,2013-03-19 16:33:00,
2013-03-19 12:43:00,72.0,70.0,30.03,SW,220,14.0,15.0,94,-99.99,,,-99.99,,2013-03-19 16:43:00,
2013-03-19 12:53:00,72.0,70.0,30.03,SW,220,14.0,15.0,94,-99.99,,,-99.99,,2013-03-19 16:53:00,
2013-03-19 13:00:00,72.0,69.0,30.02,SW,230,17.0,18.0,89,-99.99,,,-99.99,,2013-03-19 17:00:00,
2013-03-19 13:23:00,72.0,69.0,30.02,SW,230,17.0,18.0,89,-99.99,,,-99.99,,2013-03-19 17:23:00,
2013-03-19 13:34:00,72.0,69.0,30.02,SW,230,17.0,18.0,89,-99.99,,,-99.99,,2013-03-19 17:34:00,
2013-03-19 13:43:00,72.0,69.0,30.02,SW,230,17.0,18.0,89,-99.99,,,-99.99,,2013-03-19 17:43:00,
2013-03-19 13:52:00,72.0,69.0,30.02,SW,230,17.0,18.0,89,-99.99,,,-99.99,,2013-03-19 17:52:00,
2013-03-19 14:00:00,73.0,70.0,30.02,WSW,240,14.0,14.0,90,-99.99,,,-99.99,,2013-03-19 18:00:00,
2013-03-19 14:22:00,73.0,70.0,30.02,WSW,240,14.0,14.0,90,-99.99,,,-99.99,,2013-03-19 18:22:00,
2013-03-19 14:33:00,73.0,70.0,30.02,WSW,240,14.0,14.0,90,-99.99,,,-99.99,,2013-03-19 18:33:00,
2013-03-19 14:41:00,73.0,70.0,30.02,WSW,240,14.0,14.0,90,-99.99,,,-99.99,,2013-03-19 18:41:00,
2013-03-19 14:52:00,73.0,70.0,30.02,WSW,240,14.0,14.0,90,-99.99,,,-99.99,,2013-03-19 18:52:00,
2013-03-19 15:00:00,72.0,69.0,29.98,WSW,250,13.0,14.0,87,-99.99,,,-99.99,,2013-03-19 19:00:00,
2013-03-19 15:21:00,72.0,69.0,29.98,WSW,250,13.0,14.0,87,-99.99,,,-99.99,,2013-03-19 19:21:00,
2013-03-19 15:31:00,72.0,69.0,29.98,WSW,250,13.0,14.0,87,-99.99,,,-99.99,,2013-03-19 19:31:00,
2013-03-19 15:41:00,72.0,69.0,29.98,WSW,250,13.0,14.0,87,-99.99,,,-99.99,,2013-03-19 19:41:00,
2013-03-19 15:52:00,72.0,69.0,29.98,WSW,250,13.0,14.0,87,-99.99,,,-99.99,,2013-03-19 19:52:00,
2013-03-19 16:00:00,72.0,70.0,29.96,West,270,5.0,6.0,93,-99.99,,,-99.99,,2013-03-19 20:00:00,
2013-03-19 16:22:00,72.0,70.0,29.96,West,270,5.0,6.0,93,-99.99,,,-99.99,,2013-03-19 20:22:00,
2013-03-19 16:32:00,72.0,70.0,29.96,West,270,5.0,6.0,93,-99.99,,,-99.99,,2013-03-19 20:32:00,
2013-03-19 16:42:00,72.0,70.0,29.96,West,270,5.0,6.0,93,-99.99,,,-99.99,,2013-03-19 20:42:00,
2013-03-19 16:52:00,72.0,70.0,29.96,West,270,5.0,6.0,93,-99.99,,,-99.99,,2013-03-19 20:52:00,
2013-03-19 17:00:00,72.0,70.0,29.96,NNW,330,9.0,9.0,90,-99.99,,,-99.99,,2013-03-19 21:00:00,
2013-03-19 17:22:00,72.0,70.0,29.96,NNW,330,9.0,9.0,90,-99.99,,,-99.99,,2013-03-19 21:22:00,
2013-03-19 17:32:00,72.0,70.0,29.96,NNW,330,9.0,9.0,90,-99.99,,,-99.99,,2013-03-19 21:32:00,
2013-03-19 17:42:00,72.0,70.0,29.96,NNW,330,9.0,9.0,90,-99.99,,,-99.99,,2013-03-19 21:42:00,
2013-03-19 17:52:00,72.0,70.0,29.96,NNW,330,9.0,9.0,90,-99.99,,,-99.99,,2013-03-19 21:52:00,
2013-03-19 18:00:00,73.0,69.0,29.96,NW,310,10.0,11.0,87,-99.99,,,-99.99,,2013-03-19 22:00:00,
2013-03-19 18:22:00,73.0,69.0,29.96,NW,310,10.0,11.0,87,-99.99,,,-99.99,,2013-03-19 22:22:00,
2013-03-19 18:32:00,73.0,69.0,29.96,NW,310,10.0,11.0,87,-99.99,,,-99.99,,2013-03-19 22:32:00,
2013-03-19 18:42:00,73.0,69.0,29.96,NW,310,10.0,11.0,87,-99.99,,,-99.99,,2013-03-19 22:42:00,
2013-03-19 18:52:00,73.0,69.0,29.96,NW,310,10.0,11.0,87,-99.99,,,-99.99,,2013-03-19 22:52:00,
2013-03-19 19:00:00,72.0,70.0,29.97,WNW,300,11.0,11.0,91,-99.99,,,-99.99,,2013-03-19 23:00:00,
2013-03-19 19:21:00,72.0,70.0,29.97,WNW,300,11.0,11.0,91,-99.99,,,-99.99,,2013-03-19 23:21:00,
2013-03-19 19:31:00,72.0,70.0,29.97,WNW,300,11.0,11.0,91,-99.99,,,-99.99,,2013-03-19 23:31:00,
2013-03-19 19:42:00,72.0,70.0,29.97,WNW,300,11.0,11.0,91,-99.99,,,-99.99,,2013-03-19 23:42:00,
2013-03-19 19:51:00,72.0,70.0,29.97,WNW,300,11.0,11.0,91,-99.99,,,-99.99,,2013-03-19 23:51:00,
2013-03-19 20:00:00,71.0,71.0,29.97,WNW,300,13.0,13.0,98,-99.99,,,-99.99,,2013-03-20 00:00:00,
2013-03-19 20:21:00,71.0,71.0,29.97,WNW,300,13.0,13.0,98,-99.99,,,-99.99,,2013-03-20 00:21:00,
2013-03-19 20:32:00,71.0,71.0,29.97,WNW,300,13.0,13.0,98,-99.99,,,-99.99,,2013-03-20 00:32:00,
2013-03-19 20:42:00,71.0,71.0,29.97,WNW,300,13.0,13.0,98,-99.99,,,-99.99,,2013-03-20 00:42:00,
2013-03-19 20:51:00,71.0,71.0,29.97,WNW,300,13.0,13.0,98,-99.99,,,-99.99,,2013-03-20 00:51:00,
2013-03-19 21:00:00,71.0,71.0,29.98,NW,310,10.0,11.0,98,-99.99,,,-99.99,,2013-03-20 01:00:00,
2013-03-19 21:21:00,71.0,71.0,29.98,NW,310,10.0,11.0,98,-99.99,,,-99.99,,2013-03-20 01:21:00,
2013-03-19 21:32:00,71.0,71.0,29.98,NW,310,10.0,11.0,98,-99.99,,,-99.99,,2013-03-20 01:32:00,
2013-03-19 21:42:00,71.0,71.0,29.98,NW,310,10.0,11.0,98,-99.99,,,-99.99,,2013-03-20 01:42:00,
2013-03-19 21:52:00,71.0,71.0,29.98,NW,310,10.0,11.0,98,-99.99,,,-99.99,,2013-03-20 01:52:00,
2013-03-19 22:00:00,70.0,70.0,30.00,WNW,300,13.0,14.0,98,-99.99,,,-99.99,,2013-03-20 02:00:00,
2013-03-19 22:21:00,70.0,70.0,30.00,WNW,300,13.0,14.0,98,-99.99,,,-99.99,,2013-03-20 02:21:00,
2013-03-19 22:31:00,70.0,70.0,30.00,WNW,300,13.0,14.0,98,-99.99,,,-99.99,,2013-03-20 02:31:00,
2013-03-19 22:41:00,70.0,70.0,30.00,WNW,300,13.0,14.0,98,-99.99,,,-99.99,,2013-03-20 02:41:00,
2013-03-19 22:52:00,70.0,70.0,30.00,WNW,300,13.0,14.0,98,-99.99,,,-99.99,,2013-03-20 02:52:00,
2013-03-19 23:00:00,70.0,70.0,30.00,NW,320,10.0,11.0,99,-99.99,,,-99.99,,2013-03-20 03:00:00,
2013-03-19 23:21:00,70.0,70.0,30.00,NW,320,10.0,11.0,99,-99.99,,,-99.99,,2013-03-20 03:21:00,
2013-03-19 23:32:00,70.0,70.0,30.00,NW,320,10.0,11.0,99,-99.99,,,-99.99,,2013-03-20 03:32:00,
2013-03-19 23:42:00,70.0,70.0,30.00,NW,320,10.0,11.0,99,-99.99,,,-99.99,,2013-03-20 03:42:00,
2013-03-19 23:52:00,70.0,70.0,30.00,NW,320,10.0,11.0,99,-99.99,,,-99.99,,2013-03-20 03:52:00,